Temp
66 66 66 66 66 67 66 66 64 65 64 65 65 65 65 65 65 64 59 64 65 68 68 68 67 66 66 65 65 64 64 64 64 64 63 63 62 62 61 61 61 61 61
67 66 67 67 67 67 67 66 64 64 64 64 64 64 64 64 64 64 62 58 64 66 68 68 68 67 66 65 64 64 64 64 64 63 63 63 62 62 62 61 61 61 61
68 68 67 66 67 66 67 66 65 65 64 66 63 64 63 64 63 64 63 60 59 63 64 66 66 65 65 64 64 64 64 63 63 63 62 62 62 62 61 61 61 61 61
69 67 66 66 66 66 65 64 63 63 62 62 61 61 62 63 63 63 64 62 61 62 61 63 63 63 63 63 63 63 63 63 62 62 62 62 62 61 61 60 60 60 60
69 67 67 66 66 64 63 63 62 63 62 61 62 61 61 60 61 67 63 62 61 60 59 61 61 61 62 62 62 62 62 62 62 62 61 61 61 60 60 60 59 59 60
68 67 67 66 66 64 62 61 61 62 62 63 69 64 59 60 60 59 59 63 60 60 59 57 54 55 60 61 61 61 61 61 61 60 60 60 60 59 59 59 59 59 59
68 66 66 66 65 63 61 61 60 59 60 62 61 57 57 58 58 57 57 57 59 59 58 57 55 54 54 60 60 60 60 60 60 59 58 58 58 58 57 57 58 58 58
68 68 66 64 64 61 61 60 60 57 59 60 57 55 50 52 55 57 56 57 56 57 58 59 56 57 54 53 52 59 59 59 57 56 56 56 56 56 56 56 57 57 57
64 66 66 63 62 62 60 60 59 59 57 59 60 53 49 47 49 56 57 57 54 53 55 56 57 57 55 53 55 53 54 53 53 53 53 53 53 54 54 54 55 55 55
64 63 62 61 60 60 59 60 61 59 58 56 57 59 52 51 48 48 55 56 56 55 53 52 54 55 56 53 56 51 50 49 50 50 51 52 52 52 53 53 53 53 53
63 63 62 61 61 60 60 59 57 56 58 56 55 49 49 52 49 49 46 51 55 54 53 51 52 52 55 53 50 48 48 47 48 48 49 50 51 51 51 51 52 52 52
62 63 63 61 61 59 57 55 55 54 53 51 52 51 50 49 49 48 46 48 48 51 53 54 51 50 50 50 55 49 48 47 47 48 48 49 49 49 49 50 50 50 51
61 62 62 61 58 57 55 55 53 50 51 49 48 49 50 50 51 50 49 46 44 47 50 52 53 51 53 49 48 48 48 46 46 48 48 48 48 48 48 48 48 48 49
62 62 62 58 57 55 52 51 50 50 49 46 47 48 47 48 50 51 50 45 41 44 45 47 50 50 49 49 48 49 45 46 46 47 47 47 47 48 47 46 46 46 47
61 60 58 55 52 51 51 51 50 46 46 45 46 46 46 46 49 52 50 50 44 35 38 44 43 50 50 48 45 43 43 48 46 45 45 45 47 47 46 46 45 45 45
59 59 56 52 50 50 50 48 46 46 45 45 45 45 45 47 49 51 50 49 48 44 38 43 45 46 48 53 49 45 45 50 47 44 44 45 46 46 45 45 44 44 43
57 56 53 50 50 48 48 46 45 45 44 44 45 44 45 48 48 48 48 48 45 44 39 41 44 46 44 44 47 45 46 43 43 46 45 44 44 43 44 43 43 42 42
54 52 50 49 49 47 46 45 44 45 44 44 45 45 47 52 49 50 47 45 43 43 41 40 43 43 42 44 43 42 48 50 44 48 46 45 43 43 43 42 42 42 41
50 50 49 47 47 46 46 45 46 45 44 45 46 47 48 48 46 47 48 46 44 50 44 43 42 41 41 41 41 42 43 41 46 49 46 44 44 44 43 43 42 42 42
49 48 48 47 47 46 46 46 45 44 45 46 47 47 48 48 48 48 46 44 46 43 43 42 43 41 39 41 39 37 37 38 38 48 47 44 43 44 44 43 42 42 42
49 48 47 46 46 46 46 45 46 44 45 45 47 48 48 47 47 46 49 43 42 43 43 41 40 40 38 35 34 37 36 36 35 37 36 36 36 37 37 41 43 43 43
49 49 46 45 44 46 41 41 43 44 46 46 44 45 46 47 47 44 42 42 44 43 41 40 40 38 38 38 36 34 35 34 29 36 34 31 35 33 36 36 42 41 41
48 46 44 44 45 46 41 41 40 43 43 42 42 43 46 51 45 46 44 42 40 39 36 39 37 38 37 39 39 34 32 32 31 33 32 28 31 30 35 43 42 42 41
48 47 46 46 46 49 41 39 39 41 41 42 42 43 42 41 42 39 38 37 38 40 42 42 35 37 38 39 38 36 35 33 32 32 34 24 30 30 32 34 41 42 41
48 48 49 48 45 39 38 38 40 38 39 37 41 40 39 38 39 39 35 33 34 36 42 41 41 40 40 40 39 36 32 27 23 28 32 29 29 28 30 30 32 41 40
50 50 49 46 43 37 37 36 37 32 31 30 33 36 36 36 36 36 33 32 30 32 33 35 35 37 37 36 36 36 33 31 27 25 31 25 29 28 22 28 30 31 31
MSLP
1021.05 1021.76 1022.10 1022.27 1022.27 1022.32 1022.45 1022.67 1023.22 1023.43 1023.64 1023.59 1023.79 1023.90 1024.00 1024.04 1024.06 1024.71 1024.90 1025.28 1025.52 1025.59 1025.98 1026.30 1026.53 1026.76 1026.99 1027.21 1027.36 1027.46 1027.55 1027.64 1027.72 1027.64 1027.71 1027.70 1027.70 1027.79 1027.82 1027.77 1027.77 1027.68 1027.59
1021.32 1021.57 1021.75 1021.95 1021.94 1022.01 1022.31 1022.78 1023.23 1023.40 1023.50 1023.72 1023.98 1024.18 1024.15 1024.22 1024.23 1024.41 1024.76 1025.19 1025.31 1025.56 1025.94 1026.12 1026.36 1026.63 1026.90 1027.15 1027.47 1027.55 1027.60 1027.66 1027.72 1027.76 1027.79 1027.75 1027.71 1027.73 1027.73 1027.72 1027.73 1027.74 1027.71
1020.95 1021.18 1021.37 1021.59 1021.69 1022.00 1022.23 1022.59 1022.82 1023.16 1023.38 1023.47 1023.88 1023.97 1024.32 1024.40 1024.43 1024.37 1024.71 1025.19 1025.52 1025.57 1025.67 1026.14 1026.27 1026.54 1026.73 1027.02 1027.37 1027.51 1027.55 1027.61 1027.72 1027.75 1027.74 1027.64 1027.63 1027.66 1027.69 1027.69 1027.66 1027.61 1027.53
1020.68 1020.95 1021.32 1021.57 1021.75 1022.09 1022.30 1022.60 1023.00 1023.29 1023.33 1023.42 1023.82 1024.02 1024.15 1024.21 1024.32 1024.46 1024.55 1025.00 1025.39 1025.64 1025.83 1026.17 1026.43 1026.63 1026.72 1026.98 1027.10 1027.36 1027.56 1027.59 1027.64 1027.65 1027.62 1027.59 1027.55 1027.61 1027.66 1027.71 1027.74 1027.65 1027.52
1020.60 1020.90 1021.01 1021.36 1021.81 1022.11 1022.34 1022.64 1022.88 1023.02 1023.21 1023.41 1023.52 1023.87 1023.95 1024.18 1024.31 1024.22 1024.56 1024.73 1025.06 1025.45 1025.91 1026.24 1026.43 1026.59 1026.61 1026.71 1026.88 1027.24 1027.41 1027.46 1027.60 1027.61 1027.57 1027.51 1027.53 1027.62 1027.67 1027.66 1027.63 1027.49 1027.34
1020.48 1020.78 1020.86 1021.32 1021.56 1021.88 1022.33 1022.65 1022.93 1022.81 1023.11 1023.12 1023.25 1023.49 1023.87 1024.00 1024.04 1024.20 1024.60 1024.65 1024.85 1025.05 1025.33 1025.95 1026.18 1026.33 1026.36 1026.61 1026.75 1027.02 1027.27 1027.34 1027.54 1027.67 1027.70 1027.66 1027.66 1027.69 1027.69 1027.61 1027.46 1027.27 1027.11
1020.13 1020.56 1020.78 1020.93 1021.15 1021.57 1022.03 1022.56 1022.81 1022.83 1023.09 1023.02 1023.26 1023.60 1023.57 1023.66 1023.93 1024.02 1024.31 1024.61 1024.66 1024.85 1025.17 1025.43 1025.64 1025.84 1026.18 1026.44 1026.47 1026.90 1027.17 1027.27 1027.43 1027.63 1027.82 1027.90 1027.85 1027.76 1027.68 1027.54 1027.36 1027.14 1026.92
1019.74 1019.94 1020.14 1020.36 1020.97 1021.70 1021.96 1022.22 1022.77 1022.84 1022.83 1022.92 1023.35 1023.45 1023.62 1024.15 1024.12 1024.02 1024.19 1024.37 1024.55 1024.62 1024.85 1024.96 1025.27 1025.47 1025.66 1026.01 1026.27 1026.60 1026.82 1027.09 1027.47 1027.73 1027.88 1028.02 1027.98 1027.86 1027.73 1027.54 1027.29 1027.01 1026.71
1019.41 1019.39 1019.56 1020.02 1020.71 1021.30 1021.75 1021.96 1022.44 1022.72 1022.66 1022.54 1022.77 1023.17 1023.65 1024.07 1024.07 1023.71 1023.92 1024.13 1024.39 1024.55 1024.65 1024.69 1024.93 1025.09 1025.26 1025.44 1025.66 1026.24 1026.62 1027.17 1027.46 1027.71 1027.87 1028.04 1028.07 1027.98 1027.81 1027.57 1027.30 1026.98 1026.65
1018.83 1019.37 1019.82 1019.82 1019.99 1020.39 1021.16 1021.24 1021.71 1022.42 1022.48 1022.20 1022.35 1022.81 1023.29 1024.11 1024.42 1024.44 1023.90 1024.13 1024.09 1024.24 1024.46 1024.49 1024.53 1024.68 1024.77 1024.99 1025.31 1025.80 1026.50 1027.12 1027.53 1027.80 1027.85 1027.97 1027.98 1027.85 1027.65 1027.41 1027.14 1026.85 1026.55
1018.48 1018.97 1019.40 1019.62 1019.79 1020.12 1020.62 1020.93 1021.36 1022.16 1022.65 1022.05 1022.15 1022.96 1023.56 1024.13 1024.39 1024.72 1024.49 1024.04 1023.91 1023.87 1023.84 1024.00 1024.11 1024.18 1024.33 1024.69 1025.16 1025.76 1026.31 1026.82 1027.19 1027.43 1027.59 1027.70 1027.74 1027.71 1027.57 1027.32 1026.98 1026.63 1026.29
1017.98 1018.52 1018.95 1019.32 1019.40 1019.67 1020.32 1021.06 1021.56 1022.13 1022.84 1023.44 1022.91 1023.07 1023.57 1024.10 1024.35 1024.42 1024.42 1024.47 1024.32 1023.83 1023.51 1023.35 1023.75 1023.83 1023.88 1024.17 1024.61 1025.37 1025.85 1026.27 1026.63 1026.88 1027.08 1027.27 1027.49 1027.58 1027.43 1027.13 1026.75 1026.36 1025.99
1017.31 1017.69 1018.32 1018.77 1019.20 1019.64 1020.28 1020.89 1021.57 1022.55 1023.22 1023.66 1023.92 1024.18 1024.40 1024.65 1024.48 1024.49 1024.45 1024.48 1024.34 1023.96 1023.73 1023.42 1023.22 1023.25 1023.28 1023.54 1024.13 1024.67 1025.25 1025.58 1025.85 1026.16 1026.49 1026.83 1027.09 1027.13 1027.00 1026.80 1026.49 1026.20 1025.84
1016.55 1016.93 1017.49 1018.25 1019.03 1019.54 1020.05 1020.78 1021.41 1022.16 1022.48 1023.45 1024.26 1024.48 1024.64 1024.67 1024.63 1024.65 1024.30 1024.27 1024.28 1024.09 1023.86 1023.55 1023.13 1022.99 1022.98 1023.08 1023.36 1023.85 1024.51 1024.90 1025.08 1025.48 1025.78 1026.09 1026.29 1026.29 1026.34 1026.34 1026.20 1025.95 1025.59
1016.08 1016.80 1017.50 1018.32 1019.20 1019.95 1020.46 1020.92 1021.58 1022.13 1022.58 1023.48 1024.00 1024.33 1024.59 1024.71 1024.57 1024.22 1023.83 1023.91 1024.11 1024.15 1023.87 1023.60 1023.47 1022.84 1022.77 1022.81 1023.01 1023.29 1023.72 1023.91 1024.35 1024.69 1024.97 1025.22 1025.29 1025.38 1025.65 1025.74 1025.69 1025.45 1025.19
1016.29 1017.08 1017.77 1018.59 1019.44 1019.96 1020.63 1021.14 1021.80 1022.28 1022.89 1023.68 1023.97 1024.34 1024.49 1024.37 1024.16 1023.91 1023.44 1023.39 1023.58 1023.81 1023.54 1023.34 1023.03 1022.82 1022.53 1022.25 1022.43 1022.71 1022.96 1023.18 1023.54 1023.88 1024.09 1024.30 1024.42 1024.68 1024.88 1024.94 1024.94 1024.79 1024.61
1016.49 1017.18 1018.03 1018.84 1019.57 1020.14 1020.68 1021.19 1022.16 1022.56 1023.08 1023.60 1023.98 1024.08 1023.99 1023.85 1023.68 1023.29 1023.16 1023.12 1023.18 1023.29 1023.22 1022.72 1022.47 1022.25 1022.12 1022.12 1021.90 1022.02 1022.11 1022.46 1022.70 1022.91 1023.23 1023.50 1023.64 1023.85 1023.91 1024.11 1024.19 1024.11 1023.98
1016.70 1017.44 1018.29 1018.98 1019.67 1020.39 1020.95 1021.55 1022.26 1022.83 1023.31 1023.62 1023.64 1023.77 1023.52 1023.31 1022.97 1022.79 1022.74 1022.82 1022.80 1022.65 1022.80 1022.38 1022.12 1021.87 1021.64 1021.41 1021.23 1021.34 1021.33 1021.45 1021.91 1022.06 1022.38 1022.64 1022.71 1022.79 1023.03 1023.31 1023.32 1023.26 1023.13
1017.37 1017.97 1018.57 1019.28 1019.95 1020.49 1021.08 1021.80 1022.21 1022.68 1023.00 1023.23 1023.34 1023.28 1023.09 1022.79 1022.67 1022.55 1022.38 1022.22 1022.11 1021.88 1021.81 1021.70 1021.27 1020.95 1020.72 1020.66 1020.61 1020.54 1020.58 1020.82 1021.06 1021.12 1021.39 1021.55 1021.84 1022.14 1022.24 1022.29 1022.27 1022.26 1022.11
1017.82 1018.50 1019.10 1019.63 1020.33 1020.66 1021.34 1021.65 1022.28 1022.73 1022.99 1023.06 1023.08 1022.93 1022.74 1022.58 1022.33 1022.10 1021.92 1021.73 1021.47 1021.46 1021.29 1021.09 1020.74 1020.61 1020.42 1020.18 1020.24 1020.39 1020.42 1020.50 1020.68 1020.55 1020.51 1020.76 1021.06 1021.23 1021.18 1021.25 1021.49 1021.35 1021.03
1018.27 1018.80 1019.27 1019.92 1020.50 1021.00 1021.58 1021.96 1022.38 1022.74 1022.84 1022.84 1022.66 1022.42 1022.14 1021.88 1021.60 1021.53 1021.28 1021.08 1021.03 1020.94 1020.72 1020.56 1020.28 1020.13 1020.00 1019.97 1020.18 1019.97 1020.03 1020.34 1020.15 1020.24 1020.33 1020.37 1020.57 1020.72 1020.80 1020.73 1020.60 1020.48 1020.20
1018.48 1019.00 1019.60 1020.02 1020.58 1021.15 1021.68 1022.02 1022.37 1022.61 1022.63 1022.52 1022.21 1021.91 1021.66 1021.38 1021.22 1020.97 1020.69 1020.45 1020.42 1020.23 1019.91 1019.81 1019.39 1019.34 1019.14 1019.30 1019.28 1019.32 1019.51 1020.14 1020.41 1019.93 1019.83 1019.98 1019.92 1020.32 1020.34 1020.19 1020.00 1019.89 1019.86
1018.62 1019.28 1019.81 1020.30 1020.77 1021.19 1021.63 1021.82 1022.17 1022.43 1022.29 1022.18 1022.02 1021.79 1021.53 1021.30 1021.14 1020.88 1020.59 1020.32 1019.97 1019.62 1019.34 1019.04 1018.87 1018.51 1018.37 1018.38 1018.31 1018.42 1018.99 1019.48 1019.78 1019.25 1019.34 1019.58 1019.72 1019.82 1019.68 1019.32 1019.27 1019.32 1019.27
1018.81 1019.40 1019.78 1020.14 1020.37 1020.80 1021.46 1021.99 1022.26 1022.47 1022.29 1022.22 1022.05 1021.82 1021.64 1021.53 1021.55 1021.40 1021.09 1020.57 1020.05 1019.56 1019.02 1018.53 1018.13 1017.68 1017.50 1017.44 1017.51 1017.49 1017.95 1018.44 1018.61 1018.66 1018.82 1019.23 1019.23 1019.39 1019.08 1018.85 1018.73 1018.72 1018.66
1018.57 1018.97 1019.27 1019.60 1020.42 1021.56 1021.95 1022.09 1022.01 1022.18 1022.27 1022.32 1022.21 1022.05 1021.90 1021.74 1021.62 1021.55 1021.28 1020.74 1019.85 1019.10 1018.58 1018.05 1017.54 1017.01 1016.53 1016.09 1016.06 1016.67 1017.10 1018.18 1018.26 1018.29 1018.23 1018.67 1018.84 1018.78 1018.54 1018.49 1018.42 1018.11 1018.02
1018.18 1018.65 1019.21 1019.83 1020.44 1021.65 1022.08 1022.24 1022.27 1022.44 1022.67 1022.82 1022.69 1022.33 1022.00 1021.81 1021.53 1021.46 1021.20 1020.71 1019.77 1019.03 1018.44 1017.61 1017.16 1016.64 1016.13 1015.98 1015.82 1015.99 1016.64 1017.01 1017.70 1017.87 1017.54 1018.07 1018.33 1018.44 1018.40 1018.08 1018.10 1017.97 1017.66
Wind_Speed
5 5 4 5 4 4 4 3 5 3 4 4 4 4 4 3 3 5 4 9 4 7 8 7 7 6 5 5 4 5 5 6 8 9 9 8 8 10 11 12 13 14 14
4 5 5 5 4 4 4 4 5 4 4 5 4 2 4 3 2 5 5 5 8 6 6 7 7 6 5 4 2 1 4 5 7 8 9 9 9 9 10 10 10 11 12
5 4 3 3 4 3 5 3 3 3 4 3 6 4 4 1 3 4 5 4 6 10 9 7 6 6 4 0 3 4 5 5 7 7 9 9 10 11 12 13 13 13 13
6 3 4 3 4 3 3 2 3 3 4 4 3 4 3 4 4 2 2 4 4 4 6 10 9 7 5 3 2 4 6 6 7 8 9 10 10 11 12 11 13 14 14
7 5 3 4 4 3 3 3 2 3 3 3 5 4 2 2 5 3 3 1 3 4 5 8 9 9 8 7 5 3 4 7 8 9 11 13 11 12 13 13 14 15 14
6 4 4 5 6 5 4 2 4 3 1 4 4 5 5 3 3 3 4 3 4 4 2 7 5 5 10 7 6 6 5 6 7 9 12 12 13 13 14 15 16 15 15
7 6 5 6 5 5 5 6 4 4 3 2 1 2 4 6 5 3 4 4 5 6 7 4 2 1 4 9 10 6 6 7 7 9 10 12 14 14 14 14 15 17 18
7 8 8 5 5 2 5 6 5 3 3 4 4 3 1 2 2 5 4 5 6 3 3 4 6 4 4 4 7 11 10 6 3 4 7 11 13 14 15 16 18 19 21
4 5 7 4 3 4 4 5 6 7 7 4 6 3 1 3 1 3 7 4 5 4 5 4 4 6 6 5 6 5 11 9 5 1 4 8 11 14 16 18 20 22 24
8 5 4 5 6 5 6 8 7 7 5 5 3 3 5 3 2 3 1 4 5 5 5 5 5 5 4 2 3 12 14 10 6 2 3 8 13 17 19 20 21 22 22
7 7 7 7 8 6 8 6 5 5 5 3 3 4 3 1 3 3 3 4 2 5 5 5 6 5 3 3 2 11 16 13 9 5 4 9 15 17 19 20 21 22 22
7 9 9 7 6 6 6 5 1 1 1 4 3 4 2 3 1 1 0 4 5 4 2 1 5 5 5 4 5 18 17 13 11 9 8 10 13 17 19 21 22 22 22
7 9 10 8 4 5 6 5 5 6 4 4 3 2 3 3 2 1 3 5 3 3 3 3 3 4 5 5 6 16 17 15 13 13 10 9 13 17 19 21 21 22 22
8 9 9 6 7 6 6 8 7 6 7 5 5 2 2 1 3 5 4 2 4 4 3 5 3 3 4 5 7 16 11 16 15 12 11 12 15 18 17 18 20 21 22
5 7 6 7 6 7 8 8 5 6 7 5 5 4 3 4 6 6 3 3 3 3 4 4 4 4 3 4 8 6 7 11 13 12 15 17 18 17 16 17 19 21 22
7 6 8 8 8 8 6 6 6 7 8 4 4 5 4 6 6 8 4 3 4 5 7 4 4 3 5 3 7 8 7 10 11 14 15 15 16 15 16 17 19 21 22
8 8 8 8 9 8 9 9 6 7 7 5 4 5 8 8 7 5 4 4 4 4 6 4 5 6 4 5 5 5 6 6 5 10 11 12 13 16 18 17 18 19 21
7 8 8 8 7 9 9 9 8 7 6 6 6 7 8 8 7 6 5 6 5 5 5 11 7 5 7 7 6 5 4 4 4 6 8 11 15 19 17 16 18 20 21
8 7 8 9 9 9 8 7 6 7 6 6 6 7 9 7 6 5 6 7 5 7 6 7 8 5 5 4 5 4 4 4 5 10 12 14 14 16 17 18 21 22 23
9 9 8 9 7 8 7 8 6 4 4 5 5 6 8 10 9 9 8 7 8 7 7 7 8 7 4 5 4 4 3 3 3 5 5 3 6 11 15 19 20 23 24
9 9 10 9 7 6 4 5 4 4 2 4 8 9 9 12 16 13 9 7 7 9 10 10 11 10 6 3 5 4 4 3 4 3 3 3 3 3 3 7 10 5 8
10 9 7 7 7 4 8 7 4 1 5 8 7 6 7 10 10 13 14 16 16 13 14 11 11 12 12 8 5 4 3 3 5 4 3 4 2 2 4 4 10 8 8
9 8 6 6 6 5 10 9 6 4 5 5 6 6 7 8 9 10 12 15 12 14 13 13 13 13 12 12 10 4 3 4 6 5 2 3 1 4 5 7 7 10 11
7 7 6 6 5 2 9 8 2 5 4 6 7 8 9 10 11 12 15 14 14 12 13 9 9 13 12 11 7 7 8 7 3 2 3 3 3 5 4 4 6 12 11
6 6 6 5 12 10 12 9 6 5 5 6 7 8 10 11 14 18 13 15 16 14 14 18 18 18 19 17 8 3 4 3 3 3 3 2 4 4 3 3 4 10 10
5 4 6 7 10 9 12 14 8 4 5 5 6 9 11 12 16 19 15 13 16 15 15 16 15 15 10 8 9 7 5 6 3 2 5 3 2 1 3 3 2 4 5
Wind_Direction
106 147 165 172 192 181 174 111 116 146 137 111 65 96 114 84 338 131 122 123 99 153 150 145 144 143 139 117 77 51 32 35 15 15 21 22 14 16 8 1 0 358 360
158 175 191 189 195 141 151 145 163 175 172 124 110 71 34 73 58 70 132 119 110 165 162 171 171 177 177 174 149 15 1 6 0 359 358 353 356 355 344 346 348 349 346
185 188 163 213 158 156 145 191 139 179 145 171 142 175 149 176 86 35 100 136 133 130 132 152 134 121 120 53 308 319 328 347 345 344 343 340 343 340 340 341 341 339 333
166 193 176 218 145 166 152 159 164 204 200 175 149 179 134 124 89 55 301 120 170 152 147 143 149 156 164 206 272 313 324 323 326 328 331 325 327 333 329 331 329 326 325
174 198 185 165 171 181 157 196 185 232 182 187 158 165 100 156 163 189 90 268 117 129 155 169 173 191 191 198 206 235 288 297 310 320 323 321 326 324 323 321 320 316 311
201 197 196 191 179 176 149 174 207 223 213 196 233 172 169 184 194 166 179 200 194 163 123 175 189 207 200 206 208 229 248 275 295 322 321 323 320 317 315 314 309 307 310
204 195 216 210 177 172 163 197 204 183 244 211 68 265 214 189 187 196 192 203 209 183 186 203 175 77 166 200 220 222 233 247 269 307 312 314 311 309 310 311 312 312 311
210 214 215 213 183 217 193 171 194 195 214 197 188 221 209 50 223 204 222 208 205 211 219 198 195 177 174 193 174 197 218 248 287 298 317 316 315 315 314 310 307 305 303
186 204 184 143 174 179 187 175 190 208 213 208 180 192 219 209 137 197 211 217 197 182 211 211 216 194 203 195 185 174 150 166 172 263 305 312 313 311 309 308 306 305 303
183 197 206 182 160 176 200 204 192 218 221 193 137 194 100 110 104 301 90 215 216 187 202 221 222 218 201 160 117 151 151 142 141 171 312 307 305 305 306 305 302 300 299
177 202 212 206 194 182 213 189 173 210 296 257 172 124 92 152 213 216 252 299 262 202 217 197 205 191 151 157 134 146 149 153 167 186 254 295 301 305 306 303 302 301 299
183 200 214 208 204 177 152 142 182 280 139 358 41 68 120 157 191 219 341 318 295 299 288 207 184 186 187 184 187 162 168 170 182 207 247 284 295 301 305 304 302 300 298
188 192 202 209 168 134 125 116 119 110 111 104 72 113 35 1 25 304 246 249 262 296 304 281 253 213 196 186 148 161 179 180 193 216 237 259 278 290 300 303 300 299 297
207 187 196 144 141 140 140 128 127 139 114 105 117 83 71 301 314 263 241 255 295 278 283 274 281 260 208 187 164 171 179 192 208 213 218 242 261 283 295 297 298 296 295
133 148 136 127 113 116 131 141 141 125 122 122 132 150 187 245 251 272 258 220 208 255 263 283 284 289 273 180 186 169 185 191 192 191 206 228 257 275 279 286 292 292 293
119 132 134 132 139 136 136 115 123 118 118 131 153 190 230 253 256 260 243 228 221 238 264 223 254 275 267 257 173 178 189 200 195 203 223 241 252 259 264 272 283 291 290
121 126 131 135 141 137 139 129 121 123 136 161 187 212 242 253 260 250 265 256 243 236 259 266 241 242 253 242 247 207 196 197 213 223 228 235 227 232 243 257 274 281 282
102 121 132 134 125 125 120 124 136 152 170 195 217 244 258 264 256 251 241 251 247 248 248 268 257 253 242 238 219 211 212 202 198 235 237 227 218 228 235 243 258 265 270
108 116 123 126 133 132 132 137 151 163 179 207 239 257 271 284 277 270 254 253 251 256 245 251 263 241 237 228 246 233 201 209 220 229 239 237 246 245 245 243 249 258 261
111 111 119 126 125 128 141 148 159 172 208 241 264 281 278 279 271 265 265 258 257 257 263 267 271 266 248 251 240 221 254 198 245 268 251 267 262 262 252 243 250 256 258
111 118 120 126 137 140 146 131 155 207 234 278 273 267 265 254 255 255 264 261 263 269 270 274 273 276 274 265 238 254 232 240 251 220 228 232 243 259 276 263 272 275 266
126 130 128 121 120 125 143 175 194 195 263 270 276 301 304 304 292 275 268 265 264 268 267 262 264 265 269 265 249 222 222 253 272 241 210 260 183 272 274 265 263 264 253
127 115 122 136 161 167 170 186 187 254 281 297 288 291 298 303 315 312 317 324 306 278 259 267 272 269 271 266 267 191 195 193 239 244 141 248 240 266 255 262 288 311 294
124 142 154 169 188 111 103 80 98 259 324 335 336 333 332 334 338 346 331 319 311 306 304 291 245 256 258 256 238 189 202 211 222 240 164 236 242 248 245 249 277 292 270
147 170 166 148 95 87 91 69 39 38 9 341 332 340 339 330 326 338 328 318 311 308 307 307 311 302 283 248 204 175 164 158 253 234 213 207 258 247 231 246 271 277 242
116 93 90 79 98 102 87 66 47 39 15 358 331 318 315 315 324 326 320 312 303 301 301 298 300 293 268 236 212 194 208 196 187 310 217 173 258 114 324 256 235 286 279